This is the latest recevied weather packets stored in our database for station/object SV1JSO-13. If no packets are shown the sender has not sent any weather packets the latest 10 day(s).
| Time | Temp. | Humidity | Pressure | Rain* | Wind** | Luminosity | Snow |
|---|---|---|---|---|---|---|---|
| 1788080100 | 28.89° C | 41% | 1010 hPa | 0 mm | - | 647 W/m² | - |
| 1788079800 | 28.89° C | 42% | 1010.1 hPa | 0 mm | - | 644 W/m² | - |
| 1788079500 | 29.44° C | 40% | 1010.1 hPa | 0 mm | - | 635 W/m² | - |
| 1788079201 | 28.89° C | 40% | 1010.3 hPa | 0 mm | - | 633 W/m² | - |
| 1788078900 | 30° C | 40% | 1010.1 hPa | 0 mm | - | 649 W/m² | - |
| 1788078600 | 29.44° C | 41% | 1010.1 hPa | 0 mm | - | 450 W/m² | - |
| 1788078300 | 29.44° C | 40% | 1010.2 hPa | 0 mm | - | 658 W/m² | - |
| 1788078000 | 29.44° C | 40% | 1010.2 hPa | 0 mm | - | 416 W/m² | - |
| 1788077700 | 28.33° C | 40% | 1010.2 hPa | 0 mm | - | 594 W/m² | - |
| 1788077400 | 28.33° C | 40% | 1010.3 hPa | 0 mm | - | 576 W/m² | - |
| 1788077100 | 28.89° C | 40% | 1010.4 hPa | 0 mm | - | 559 W/m² | - |
| 1788076800 | 28.33° C | 39% | 1010.4 hPa | 0 mm | - | 541 W/m² | - |
| 1788076500 | 28.33° C | 39% | 1010.4 hPa | 0 mm | - | 528 W/m² | - |
| 1788076200 | 28.33° C | 41% | 1010.2 hPa | 0 mm | - | 513 W/m² | - |
| 1788075900 | 28.89° C | 40% | 1010.3 hPa | 0 mm | - | 509 W/m² | - |
| 1788075600 | 28.89° C | 39% | 1010.2 hPa | 0 mm | - | 513 W/m² | - |
| 1788075300 | 28.89° C | 38% | 1010.2 hPa | 0 mm | - | 514 W/m² | - |
| 1788075000 | 29.44° C | 36% | 1010.2 hPa | 0 mm | - | 484 W/m² | - |
| 1788074700 | 29.44° C | 36% | 1010.2 hPa | 0 mm | - | 465 W/m² | - |
| 1788074400 | 28.89° C | 36% | 1010.1 hPa | 0 mm | - | 456 W/m² | - |
| 1788074100 | 28.33° C | 37% | 1010.1 hPa | 0 mm | - | 438 W/m² | - |
| 1788073800 | 28.89° C | 37% | 1010 hPa | 0 mm | - | 420 W/m² | - |
| 1788073500 | 28.33° C | 39% | 1010 hPa | 0 mm | - | 404 W/m² | - |
| 1788073200 | 28.89° C | 38% | 1010 hPa | 0 mm | - | 386 W/m² | - |
| 1788072900 | 28.89° C | 38% | 1009.9 hPa | 0 mm | - | 371 W/m² | - |
* Rain latest hour (hover to see other rain measurements)
** Current wind speed in m/s (hover to see current wind gust speed)